Home > Weather > Cheltenham > Past weeks

Flag for United Kingdom Weather for the Past 2 Weeks in Cheltenham, England, United Kingdom

Now
52 °F

Rain. Broken clouds.


Feels Like: 46 °F
Forecast: N/A
Wind: 21 mph from South

Location: Staverton Private

Current Time: Feb 6, 2016 at 4:16:54 PM

Latest Report: Feb 6, 2016 at 3:20 PM


Visibility: 6 mi

Pressure: 29.15 "Hg

Humidity: 88%

Dew point: 48 °F

Location of CheltenhamLocation

Historic Weather in Cheltenham — Graph

°F

Cheltenham Temperature Yesterday

Maximum temperature yesterday: 52 °F (at 9:50 AM)
Minimum temperature yesterday: 50 °F (at 8:20 AM)
Average temperature yesterday: 51 °F

High & Low Weather Summary for the Past Weeks

 TemperatureHumidityPressure
High59 °F (Jan 24, 2:50 PM)100% (Jan 26, 5:50 PM)30.39 "Hg (Jan 26, 5:50 PM)
Low37 °F (Jan 28, 6:50 AM)50% (Feb 2, 12:50 PM)29.15 "Hg (Feb 6, 2:50 PM)
Average51 °F81%29.97 "Hg
* Reported Jan 22 3:20 PM — Feb 6 3:20 PM, Cheltenham, Weather by CustomWeather, © 2016

Note: Actual official high and low records may vary slightly from our data, if they occured in-between our weather recording intervals... More about our weather records

Advertising

Cheltenham Weather History for the Previous 24 Hours

 ConditionsComfort  
Time TempWeatherWind HumidityBarometerVisibility
3:20 PM
Sat, Feb 6
52 °FRain. Broken clouds.21 mph88%29.15 "Hg6 mi
2:50 PM52 °FRain. Broken clouds.25 mph88%29.15 "HgN/A
2:20 PM52 °FLight rain. Partly sunny.28 mph88%29.18 "HgN/A
1:50 PM52 °FLight rain. Partly sunny.26 mph88%29.18 "HgN/A
1:20 PM52 °FLight rain. Partly sunny.25 mph88%29.21 "HgN/A
12:50 PM52 °FLight rain. Partly sunny.26 mph88%29.27 "HgN/A
12:20 PM52 °FRain. Partly sunny.25 mph94%29.27 "Hg5 mi
11:50 AM52 °FRain. Partly sunny.29 mph94%29.27 "Hg6 mi
11:20 AM52 °FLight rain. Mostly cloudy.25 mph94%29.30 "Hg6 mi
10:50 AM52 °FRain. Mostly cloudy.23 mph94%29.33 "Hg4 mi
10:20 AM52 °FLight rain. Broken clouds.26 mph94%29.33 "Hg4 mi
9:50 AM52 °FLight rain. Broken clouds.17 mph94%29.36 "Hg4 mi
9:20 AM48 °FRain. Partly sunny.5 mph94%29.39 "Hg4 mi
8:50 AM48 °FRain. Broken clouds.10 mph94%29.42 "Hg4 mi
8:20 AM50 °FRain. Partly sunny.10 mph94%29.45 "Hg2 mi
6:50 PM
Fri, Feb 5
50 °FLight rain. Passing clouds.23 mph88%29.77 "Hg5 mi
6:20 PM52 °FPassing clouds.20 mph82%29.77 "HgN/A
5:50 PM50 °FPassing clouds.18 mph88%29.80 "HgN/A
5:20 PM50 °FScattered showers. Passing clouds.14 mph88%29.83 "HgN/A
4:50 PM50 °FScattered showers. Scattered clouds.17 mph88%29.83 "HgN/A
4:20 PM50 °FScattered showers. Scattered clouds.13 mph88%29.83 "HgN/A
Weather by CustomWeather, © 2016

See weather overviewHow to use our weather pages